FLOCK 3P-83 (42050 NORAD) Tracking and Keplerian Element Data

This shows tracking and keplerian element data for the satellite.

Feedback or suggestion? Click here.




ElementValue
Catalog42050
NameFLOCK 3P-83
Epoch Orbit23376
Epoch Day119.85217734
Epoch Year2021
RAAN189.1349
Inclination97.3276
Eccentricity0.0005884
Argument of Perigee251.0185
Mean Anonmoly109.0418
Mean Motion15.28481774
Decay Rate4.505E-05
L11 42050U 17008DG 21119.85217734 .00004505 00000-0 16514-3 0 9992
L22 42050 97.3276 189.1349 0005884 251.0185 109.0418 15.28481774233760



Live tracking and technical data element details for FLOCK 3P-83 (NORAD 42050). FLOCK 3P-83 can be tracked NOW for your location showing map with azimuth and elevation plus other details from your city location.







IsCatalogInMostPopularTable: catalog: 42050, numindb: 676
Update: records affected: 1



GetName: 42050 FLOCK 3P-83

Hit Count: updated at: Mon, 17 Jun 2024 22:48:04 GMT